FENGYUN 1C DEB, 33741

Orbit data source: Space-Track

FENGYUN 1C DEB, 33741 is space debris in SSO originally from a launch on Mon, 10 May 1999 UTC launched from the Taiyaun Space Center, China (TSC). Fengyun 1C debris stems from the Chinese weather satellite Fengyun-1C, which was intentionally destroyed by a Chinese anti-satellite missile in 2007. This event dramatically increased the amount of space debris, with thousands of trackable fragments posing hazards to satellites and human spaceflight. The Fengyun 1C debris cloud has become a focal point in discussions about space sustainability and the need for international regulations to prevent the creation of new debris.

Loading next visibility...
Identifier
33741, 1999-025DJE
Orbit
SSO
Country
Flag of CNCN / PRC
Related business
Manufacturer
Unknown
Mission
Spacecraft
Bus & Motor
Unknown
Mass
Unknown
Launch date (UTC)
1999-05-10 (27 years ago)
Launch vehicle
Unknown
Launch site
Taiyaun Space Center, China (TSC)
Object type
Payload
Rocket body
Debris
Shape & HBR
Unknown shape, 0.1 m
Radar Cross Section
Small (<0.1 m²)

Expand to show TLE details & history
Last TLE update: 2 days ago

TLE from 2 days ago
0 FENGYUN 1C DEB
1 33741U 99025DJE 25345.71011440  .00005952  00000-0  31597-2 0  9998
2 33741  98.5648 259.3576 0127526  91.2636 270.3148 14.09800976568487
Epoch: 2025-12-11T17:02Z
TLE epoch observation values (Epoch: 2025-12-11T17:02:33.884Z)
Latitude
-0.00004°
Longitude
-76.94576°
Altitude
863.629 km
Speed
7.42 km/s
True Right ascension
17h 17m 25s
True Declination
0° 00' 00"
Sunlit
Object was in daylight at epoch
Visualization orbit readout
Latitude
Unknown
Longitude
Unknown
Altitude
Unknown
Speed
Unknown
Apparent Right ascension
Unknown
Apparent Declination
Unknown
Sunlit
N/A
Visualization observer readout
Local Sidereal Time
14:20:46
Azimuth
Unknown
Elevation
Unknown
Doppler factor
Unknown
Orbital elements
Apogee altitude
949.487 km
Perigee altitude
764.948 km
Semi-major axis
7,235.355 km
Eccentricity
0.01275
Inclination
98.5648°
RAAN
259.3576°
Arg. of periapsis
91.2636°
True anomaly
268.85351°
Mean anomaly
270.3148°
Eccentric anomaly
269.58415°
Mean motion
3.52658 °/min
Orbital period
102.08 mins
BSTAR
0.0031597
Loading maneuver chart data...
Computing Atmospheric mass density...

Documentation

Showing up to 5 results
|